Tracking 19792 objects as of 16-Jul-2019
HD Live streaming from Space Station
objects crossing your sky now

CHINASAT 20

Track CHINASAT 20 now!
CHINASAT 20 is classified as:


NORAD ID: 28082
Int'l Code: 2003-052A
Perigee: 36,103.9 km
Apogee: 36,138.6 km
Inclination: 5.0 °
Period: 1,452.9 minutes
Semi major axis: 42492 km
RCS: 12.5893 m2 (large)
Launch date: November 14, 2003
Source: People's Republic of China (PRC)
Launch site: Xichang Space Center, China (XSC)

Dedicated military communications satellite.
aabbcc
Your satellite tracking list
Your tracking list is empty




NASA's NSSDC Master Catalog

Two Line Element Set (TLE):
1 28082U 03052A   19195.83625694 -.00000199  00000-0  00000+0 0  9997
2 28082   5.0104  67.8801 0004084  20.0186 320.9359  0.99114732 57329
Source of the keplerian elements: AFSPC